sat.trackr.live / text

‹ back to catalog

BEIDOU-3 G2 (PRN 144)

NORAD 45344 · 2020-017A

PAYLOAD ACTIVE UNKNOWN

§ Identity

Operator
Country
PRC
Launch date
2020-03-09
Launch site
XICLF
Launch vehicle
Mass (kg)
RCS (m²)

Purposes: comms, nav

External: N2YO · Heavens-Above · Gunter

§ Orbital elements

Epoch: 2026-09-20T03:36:55.923264Z

Period
1,436.09 min
Inclination
2.5966°
Eccentricity
0.0002223
Mean motion
1.00272480 rev/d
Perigee alt
35,777.0 km
Apogee alt
35,795.8 km
Semi-major
42,164.5 km
B*
0.0000e+0
RAAN
48.5054°
Arg perigee
127.9358°
Mean anomaly
316.9159°
Rev number
2,421

§ Raw data

BEIDOU-3 G2 (PRN 144)1 45344U 20017A   26263.15064726 -.00000143  00000+0  00000+0 0  99972 45344   2.5966  48.5054 0002223 127.9358 316.9159  1.00272480 24217

JSON: /api/v1/satellites/45344 · /tle

For live sub-satellite position, see the globe view (requires WebGL).

§ Visibility from observer

Set your observer location to see the next 7 days of passes ≥ 10°. The values pass through the URL so the page stays shareable.

No JS? Fill the form by hand. The geolocation button needs JavaScript.